Regional Weather Roundup
Issued by NWS

Home | Current Version | Previous Version | Graphics & Text | Print | Product List | Glossary On
Versions: 1 2 3 4 5 6 7 8 9 10 11 12 13 14 15 16 17 18 19 20 21 22 23 24 25 26 27 28 29 30 31 32 33 34 35 36 37 38 39 40 41 42 43 44 45 46 47 48 49 50
000
ASUS43 KBIS 310302
RWRND

NORTH DAKOTA REGIONAL WEATHER ROUNDUP
NATIONAL WEATHER SERVICE BISMARCK ND
1000 PM CDT TUE AUG 30 2016

NOTE: "FAIR" INDICATES FEW OR NO CLOUDS BELOW 12,000 FEET WITH NO
SIGNIFICANT WEATHER AND/OR OBSTRUCTIONS TO VISIBILITY.


NDZ001>003-009>011-017-310400-
NORTHWEST NORTH DAKOTA

CITY           SKY/WX    TMP DP  RH WIND       PRES   REMARKS
WILLISTON      CLEAR     75  49  39 E7        30.14R
MINOT          CLEAR     65  50  58 E6        30.18R
MINOT AFB      CLEAR     66  50  56 E10       30.17R
$$

NDZ018>021-031>035-040>046-310400-
SOUTHWEST NORTH DAKOTA

CITY           SKY/WX    TMP DP  RH WIND       PRES   REMARKS
BISMARCK       CLOUDY    68  52  56 E6        30.18R
DICKINSON      PTCLDY    67  53  61 E12       30.13S
GARRISON         N/A     67  55  65 E8        30.18R
HETTINGER ARPT CLEAR     73  61  65 E12       30.17S
$$

NDZ004>008-012>016-024-026-027-054-310400-
NORTHEAST NORTH DAKOTA

CITY           SKY/WX    TMP DP  RH WIND       PRES   REMARKS
GRAND FORKS    PTCLDY    61  55  81 NE6       30.20R
GRND FRKS AFB  CLEAR     60  54  82 CALM      30.21R
DEVILS LAKE    CLEAR     62  55  77 NE3       30.23R
$$

NDZ022-023-025-028>030-036>039-047>053-310400-
SOUTHEAST NORTH DAKOTA

CITY           SKY/WX    TMP DP  RH WIND       PRES   REMARKS
FARGO          PTCLDY    64  57  78 CALM      30.19S
JAMESTOWN      CLEAR     61  56  83 E5        30.20S
$$




USA.gov is the U.S. government's official web portal to all federal, state and local government web resources and services.